TimeCDT,TemperatureF,Dew PointF,Humidity,Sea Level PressureIn,VisibilityMPH,Wind Direction,Wind SpeedMPH,Gust SpeedMPH,PrecipitationIn,Events,Conditions,WindDirDegrees,DateUTC
12:15 AM,65.1,57.2,75,30.16,10.0,Calm,Calm,-,N/A,,Clear,0,2014-05-18 05:15:00
12:35 AM,63.1,57.2,81,30.16,10.0,Calm,Calm,-,N/A,,Clear,0,2014-05-18 05:35:00
12:55 AM,62.6,57.2,82,30.16,10.0,Calm,Calm,-,N/A,,Clear,0,2014-05-18 05:55:00
1:15 AM,60.8,56.3,85,30.16,10.0,Calm,Calm,-,N/A,,Clear,0,2014-05-18 06:15:00
1:55 AM,58.3,54.9,88,30.15,10.0,Calm,Calm,-,N/A,,Unknown,0,2014-05-18 06:55:00
2:15 AM,59.0,55.0,87,30.16,10.0,Calm,Calm,-,N/A,,Unknown,0,2014-05-18 07:15:00
2:35 AM,57.9,54.3,88,30.16,10.0,Calm,Calm,-,N/A,,Unknown,0,2014-05-18 07:35:00
2:55 AM,57.0,53.4,88,30.16,10.0,Calm,Calm,-,N/A,,Unknown,0,2014-05-18 07:55:00
3:15 AM,55.9,52.5,88,30.16,10.0,Calm,Calm,-,N/A,,Clear,0,2014-05-18 08:15:00
3:35 AM,56.3,53.2,89,30.16,10.0,Calm,Calm,-,N/A,,Clear,0,2014-05-18 08:35:00
3:55 AM,55.9,52.7,89,30.16,10.0,Calm,Calm,-,N/A,,Clear,0,2014-05-18 08:55:00
4:15 AM,55.6,52.5,89,30.16,10.0,Calm,Calm,-,N/A,,Clear,0,2014-05-18 09:15:00
4:35 AM,54.5,51.1,88,30.17,10.0,North,4.6,-,N/A,,Clear,360,2014-05-18 09:35:00
4:55 AM,54.5,51.8,91,30.17,10.0,Calm,Calm,-,N/A,,Unknown,0,2014-05-18 09:55:00
5:15 AM,54.7,51.3,88,30.17,10.0,Calm,Calm,-,N/A,,Unknown,0,2014-05-18 10:15:00
5:35 AM,54.7,51.4,89,30.17,10.0,Calm,Calm,-,N/A,,Unknown,0,2014-05-18 10:35:00
5:55 AM,53.6,50.5,89,30.17,10.0,Calm,Calm,-,N/A,,Unknown,0,2014-05-18 10:55:00
6:15 AM,54.0,50.9,89,30.18,10.0,Calm,Calm,-,N/A,,Clear,0,2014-05-18 11:15:00
6:35 AM,54.1,50.5,88,30.18,10.0,Calm,Calm,-,N/A,,Clear,0,2014-05-18 11:35:00
6:55 AM,54.9,51.8,89,30.19,10.0,Calm,Calm,-,N/A,,Scattered Clouds,0,2014-05-18 11:55:00
7:15 AM,57.4,54.1,89,30.20,10.0,Calm,Calm,-,N/A,,Scattered Clouds,0,2014-05-18 12:15:00
7:35 AM,60.3,56.8,88,30.20,10.0,Calm,Calm,-,N/A,,Clear,0,2014-05-18 12:35:00
7:55 AM,63.0,58.1,84,30.21,10.0,Calm,Calm,-,N/A,,Clear,0,2014-05-18 12:55:00
8:15 AM,65.8,59.9,81,30.21,10.0,Calm,Calm,-,N/A,,Clear,0,2014-05-18 13:15:00
8:35 AM,68.0,60.4,77,30.21,10.0,Calm,Calm,-,N/A,,Clear,0,2014-05-18 13:35:00
8:55 AM,70.2,61.0,73,30.21,10.0,Calm,Calm,-,N/A,,Unknown,0,2014-05-18 13:55:00
9:15 AM,73.0,61.7,67,30.21,10.0,Calm,Calm,-,N/A,,Unknown,0,2014-05-18 14:15:00
9:35 AM,74.5,61.2,63,30.21,10.0,Calm,Calm,-,N/A,,Unknown,0,2014-05-18 14:35:00
10:00 AM,75.6,59.5,57,30.21,10.0,Calm,Calm,-,N/A,,Unknown,0,2014-05-18 15:00:00
10:15 AM,76.8,59.5,55,30.21,10.0,SW,3.5,-,N/A,,Unknown,230,2014-05-18 15:15:00
10:35 AM,76.8,57.4,51,30.21,10.0,West,3.5,-,N/A,,Unknown,270,2014-05-18 15:35:00
10:55 AM,78.6,57.7,49,30.20,10.0,Calm,Calm,-,N/A,,Unknown,0,2014-05-18 15:55:00
11:15 AM,79.2,58.6,49,30.20,10.0,Calm,Calm,-,N/A,,Unknown,0,2014-05-18 16:15:00
11:35 AM,79.7,57.7,47,30.20,10.0,Calm,Calm,-,N/A,,Unknown,0,2014-05-18 16:35:00
11:55 AM,80.6,56.1,43,30.19,10.0,North,3.5,-,N/A,,Unknown,360,2014-05-18 16:55:00
12:15 PM,81.3,54.1,39,30.19,10.0,WSW,3.5,-,N/A,,Unknown,250,2014-05-18 17:15:00
12:35 PM,81.0,52.9,38,30.18,10.0,Calm,Calm,-,N/A,,Unknown,0,2014-05-18 17:35:00
12:55 PM,82.8,54.1,37,30.18,10.0,SE,3.5,-,N/A,,Unknown,140,2014-05-18 17:55:00
1:15 PM,82.8,54.7,38,30.18,10.0,SSW,4.6,-,N/A,,Clear,210,2014-05-18 18:15:00
1:35 PM,82.6,54.1,37,30.17,10.0,Calm,Calm,-,N/A,,Clear,0,2014-05-18 18:35:00
1:55 PM,84.0,52.5,34,30.17,10.0,SW,5.8,-,N/A,,Clear,230,2014-05-18 18:55:00
2:15 PM,83.7,51.6,33,30.16,10.0,West,3.5,-,N/A,,Clear,260,2014-05-18 19:15:00
2:35 PM,83.8,53.1,35,30.16,10.0,Calm,Calm,-,N/A,,Clear,0,2014-05-18 19:35:00
3:00 PM,84.2,52.3,33,30.15,10.0,West,3.5,-,N/A,,Unknown,260,2014-05-18 20:00:00
3:15 PM,85.3,52.2,32,30.15,10.0,WSW,5.8,-,N/A,,Unknown,250,2014-05-18 20:15:00
3:35 PM,84.9,52.2,32,30.15,10.0,Calm,Calm,-,N/A,,Unknown,0,2014-05-18 20:35:00
3:55 PM,85.3,52.5,32,30.14,10.0,Calm,Calm,-,N/A,,Unknown,0,2014-05-18 20:55:00
4:15 PM,85.5,52.0,31,30.14,10.0,South,3.5,-,N/A,,Clear,180,2014-05-18 21:15:00
4:35 PM,85.1,50.2,30,30.13,10.0,Calm,Calm,-,N/A,,Clear,0,2014-05-18 21:35:00
4:55 PM,85.8,54.0,33,30.13,10.0,Calm,Calm,-,N/A,,Clear,0,2014-05-18 21:55:00
5:15 PM,85.1,52.7,33,30.13,10.0,South,4.6,-,N/A,,Scattered Clouds,170,2014-05-18 22:15:00
5:35 PM,84.9,53.2,34,30.12,10.0,SE,5.8,-,N/A,,Scattered Clouds,140,2014-05-18 22:35:00
5:55 PM,85.1,54.0,34,30.12,10.0,SSW,4.6,-,N/A,,Scattered Clouds,200,2014-05-18 22:55:00
6:15 PM,81.7,56.7,42,30.12,10.0,South,4.6,-,N/A,,Scattered Clouds,180,2014-05-18 23:15:00
6:35 PM,82.6,57.2,42,30.12,10.0,SW,5.8,-,N/A,,Clear,220,2014-05-18 23:35:00
6:55 PM,81.5,60.4,49,30.12,10.0,South,8.1,-,N/A,,Clear,180,2014-05-18 23:55:00
7:15 PM,79.5,60.1,51,30.13,10.0,SSW,6.9,-,N/A,,Clear,210,2014-05-19 00:15:00
7:35 PM,77.9,60.4,55,30.13,10.0,SSW,9.2,-,N/A,,Clear,200,2014-05-19 00:35:00
7:55 PM,76.8,60.3,56,30.13,10.0,SSW,5.8,-,N/A,,Clear,200,2014-05-19 00:55:00
8:15 PM,75.4,60.4,60,30.14,10.0,SSW,5.8,-,N/A,,Clear,200,2014-05-19 01:15:00
8:35 PM,74.1,60.8,63,30.14,10.0,SSW,4.6,-,N/A,,Clear,200,2014-05-19 01:35:00
8:55 PM,72.7,60.4,65,30.15,10.0,South,3.5,-,N/A,,Unknown,170,2014-05-19 01:55:00
9:15 PM,72.5,60.4,66,30.15,10.0,Calm,Calm,-,N/A,,Unknown,0,2014-05-19 02:15:00
9:35 PM,71.8,60.4,67,30.16,10.0,Calm,Calm,-,N/A,,Unknown,0,2014-05-19 02:35:00
9:55 PM,69.4,60.6,73,30.16,10.0,South,3.5,-,N/A,,Unknown,190,2014-05-19 02:55:00
10:15 PM,70.7,60.8,71,30.17,10.0,SSE,4.6,-,N/A,,Clear,160,2014-05-19 03:15:00
10:35 PM,70.0,60.8,73,30.17,10.0,South,4.6,-,N/A,,Clear,170,2014-05-19 03:35:00
10:55 PM,69.6,61.0,74,30.17,10.0,SSE,4.6,-,N/A,,Clear,160,2014-05-19 03:55:00
11:15 PM,68.9,61.0,76,30.17,10.0,SSE,4.6,-,N/A,,Unknown,160,2014-05-19 04:15:00
11:35 PM,66.9,60.6,80,30.17,10.0,Calm,Calm,-,N/A,,Unknown,0,2014-05-19 04:35:00
11:55 PM,65.5,59.9,82,30.16,10.0,Calm,Calm,-,N/A,,Unknown,0,2014-05-19 04:55:00